Location: Hylvaty SDH
(49.9612°N, 16.4057°E)
Time: 13:54:11
(UTC+02:00)

Transit 2A Rocket - Visible Passes

Search period start: 13 July 2020 00:00
Search period end: 23 July 2020 00:00
Orbit: 584 x 919 km, 66.7° (Epoch: 12 July)

Date Brightness Start Highest point End Pass type
(mag) Time Alt. Az. Time Alt. Az. Time Alt. Az.
13 Jul 7.5 22:53:05 10° WNW 22:56:36 16° WSW 23:00:04 10° SW visible
14 Jul 7.1 22:09:35 10° NW 22:14:28 25° WSW 22:19:09 10° SSW visible
15 Jul 6.5 21:26:33 10° NW 21:32:10 39° WSW 21:37:33 10° S visible
16 Jul 7.8 22:29:23 10° W 22:31:09 11° W 22:32:54 10° WSW visible
17 Jul 7.5 21:45:01 10° WNW 21:49:04 19° WSW 21:53:01 10° SSW visible
